Weather History for Perryton, TX

Change the Weather History Date:

Saturday, January 19, 2013

  Actual Average Record
Temperature  
Mean Temperature 43 °F -  
Max Temperature 60 °F 44 °F 72 °F (1976)
Min Temperature 26 °F 20 °F -13 °F (1984)
Degree Days  
Heating Degree Days 22    
Moisture  
Dew Point 21 °F    
Average Humidity 51    
Maximum Humidity 86    
Minimum Humidity 19    
Precipitation  
Precipitation 0.00 in - - ()
Sea Level Pressure  
Sea Level Pressure 30.15 in    
Wind  
Wind Speed 8 mph (NW)    
Max Wind Speed 18 mph    
Max Gust Speed 25 mph    
Visibility 10 miles    
Events      
Averages and records for this station are not official NWS values.
T = Trace of Precipitation, MM = Missing Value Source: NWS Daily Summary

Daily Weather History Graph

Daily Weather History Graph

Search for Another Location

Airport:

Trip Planner

Search our weather history database for the weather conditions in past years. The results will help you decide how hot, cold, wet, or windy it might be!

Date:

Astronomy

Jan. 19, 2013 Rise Set
Actual Time 7:52 AM CST 5:55 PM CST
Civil Twilight 7:24 AM CST 6:23 PM CST
Nautical Twilight 6:52 AM CST 6:55 PM CST
Astronomical Twilight 6:22 AM CST 7:25 PM CST
Moon 12:21 PM CST (1/19) 1:30 AM CST (1/19)
Length of Visible Light 10h 59m
Length of Day
10h 03m
First Quarter, 57% of the Moon is Illuminated
Jan 19
First Quarter
Jan 26
Full
Feb 3
Last Quarter
Feb 10
New
Feb 17
First Quarter

Hourly Weather History & Observations

Time (CST) Temp. Windchill Dew Point Humidity Pressure Visibility Wind Dir Wind Speed Gust Speed Precip Events Conditions
12:15 AM 32.0 °F 26.4 °F 26.6 °F 80% 30.06 in 10.0 mi SSW 5.8 mph - N/A   Clear
12:35 AM 30.2 °F 24.3 °F 26.6 °F 86% 30.05 in 10.0 mi SSW 5.8 mph - N/A   Clear
12:55 AM 30.2 °F 24.3 °F 24.8 °F 80% 30.05 in 10.0 mi SSW 5.8 mph - N/A   Clear
1:15 AM 28.4 °F 22.2 °F 24.8 °F 86% 30.05 in 10.0 mi SW 5.8 mph - N/A   Clear
1:35 AM 28.4 °F 21.2 °F 24.8 °F 86% 30.05 in 10.0 mi WSW 6.9 mph - N/A   Clear
1:55 AM 30.2 °F 23.4 °F 26.6 °F 86% 30.05 in 10.0 mi SW 6.9 mph - N/A   Clear
2:15 AM 30.2 °F 23.4 °F 26.6 °F 86% 30.05 in 10.0 mi WSW 6.9 mph - N/A   Clear
2:35 AM 30.2 °F 24.3 °F 24.8 °F 80% 30.05 in 10.0 mi SW 5.8 mph - N/A   Clear
2:55 AM 32.0 °F 27.5 °F 26.6 °F 80% 30.05 in 10.0 mi WSW 4.6 mph - N/A   Clear
3:15 AM 30.2 °F 22.6 °F 24.8 °F 80% 30.05 in 10.0 mi SW 8.1 mph - N/A   Clear
3:35 AM 30.2 °F 24.3 °F 23.0 °F 75% 30.04 in 10.0 mi West 5.8 mph - N/A   Clear
3:55 AM 28.4 °F 24.6 °F 23.0 °F 80% 30.04 in 10.0 mi WNW 3.5 mph - N/A   Clear
4:15 AM 30.2 °F 26.7 °F 23.0 °F 75% 30.04 in 10.0 mi SW 3.5 mph - N/A   Clear
4:35 AM 28.4 °F 20.4 °F 23.0 °F 80% 30.04 in 10.0 mi SSW 8.1 mph - N/A   Clear
4:55 AM 28.4 °F 21.2 °F 23.0 °F 80% 30.04 in 10.0 mi WSW 6.9 mph - N/A   Clear
5:15 AM 26.6 °F 19.1 °F 23.0 °F 86% 30.04 in 10.0 mi SW 6.9 mph - N/A   Clear
5:35 AM 26.6 °F 18.2 °F 23.0 °F 86% 30.04 in 10.0 mi WSW 8.1 mph - N/A   Clear
5:55 AM 28.4 °F 20.4 °F 23.0 °F 80% 30.04 in 10.0 mi West 8.1 mph - N/A   Clear
7:15 AM 28.4 °F 19.1 °F 23.0 °F 80% 30.06 in 10.0 mi WNW 10.4 mph - N/A   Clear
7:55 AM 28.4 °F 19.1 °F 21.2 °F 74% 30.08 in 10.0 mi WNW 10.4 mph - N/A   Clear
8:35 AM 32.0 °F 23.6 °F 23.0 °F 69% 30.10 in 10.0 mi NW 10.4 mph - N/A   Clear
9:35 AM 37.4 °F 29.3 °F 23.0 °F 56% 30.14 in 10.0 mi NNW 12.7 mph - N/A   Clear
9:55 AM 41.0 °F 33.5 °F 23.0 °F 49% 30.15 in 10.0 mi NNW 13.8 mph - N/A   Clear
10:15 AM 42.8 °F 35.4 °F 21.2 °F 42% 30.17 in 10.0 mi North 15.0 mph - N/A   Clear
10:35 AM 46.4 °F 40.7 °F 19.4 °F 34% 30.17 in 10.0 mi North 12.7 mph - N/A   Clear
11:15 AM 51.8 °F - 21.2 °F 30% 30.18 in 10.0 mi North 18.4 mph - N/A   Clear
11:35 AM 51.8 °F - 19.4 °F 28% 30.18 in 10.0 mi North 18.4 mph - N/A   Clear
11:55 AM 55.4 °F - 19.4 °F 25% 30.17 in 10.0 mi North 17.3 mph 25.3 mph N/A   Clear
12:15 PM 57.2 °F - 19.4 °F 23% 30.17 in 10.0 mi North 13.8 mph 18.4 mph N/A   Clear
12:35 PM 59.0 °F - 19.4 °F 22% 30.16 in 10.0 mi North 15.0 mph 21.9 mph N/A   Clear
12:55 PM 59.0 °F - 19.4 °F 22% 30.16 in 10.0 mi North 17.3 mph 25.3 mph N/A   Clear
1:15 PM 59.0 °F - 21.2 °F 23% 30.15 in 10.0 mi North 13.8 mph 23.0 mph N/A   Clear
1:35 PM 60.8 °F - 19.4 °F 20% 30.15 in 10.0 mi North 17.3 mph 23.0 mph N/A   Clear
1:55 PM 60.8 °F - 19.4 °F 20% 30.14 in 10.0 mi North 17.3 mph 23.0 mph N/A   Clear
2:15 PM 60.8 °F - 19.4 °F 20% 30.15 in 10.0 mi North 13.8 mph 19.6 mph N/A   Clear
2:35 PM 60.8 °F - 17.6 °F 19% 30.14 in 10.0 mi North 18.4 mph 25.3 mph N/A   Clear
2:55 PM 60.8 °F - 19.4 °F 20% 30.15 in 10.0 mi NNE 12.7 mph - N/A   Clear
3:15 PM 60.8 °F - 19.4 °F 20% 30.15 in 10.0 mi North 17.3 mph - N/A   Clear
3:35 PM 60.8 °F - 19.4 °F 20% 30.15 in 10.0 mi NNE 12.7 mph 19.6 mph N/A   Clear
3:55 PM 60.8 °F - 19.4 °F 20% 30.16 in 10.0 mi NNE 16.1 mph 25.3 mph N/A   Clear
4:15 PM 60.8 °F - 17.6 °F 19% 30.16 in 10.0 mi NNE 16.1 mph - N/A   Clear
4:35 PM 60.8 °F - 17.6 °F 19% 30.17 in 10.0 mi North 15.0 mph 20.7 mph N/A   Clear
4:55 PM 60.8 °F - 19.4 °F 20% 30.18 in 10.0 mi NNE 12.7 mph 18.4 mph N/A   Clear
5:15 PM 59.0 °F - 19.4 °F 22% 30.19 in 10.0 mi NNE 10.4 mph - N/A   Clear
5:35 PM 55.4 °F - 21.2 °F 26% 30.19 in 10.0 mi NE 9.2 mph - N/A   Clear
5:55 PM 50.0 °F - 23.0 °F 35% 30.19 in 10.0 mi NE 6.9 mph - N/A   Clear
6:15 PM 48.2 °F - 21.2 °F 34% 30.19 in 10.0 mi NE 8.1 mph - N/A   Clear
6:35 PM 48.2 °F - 21.2 °F 34% 30.21 in 10.0 mi NNE 8.1 mph - N/A   Clear
6:55 PM 41.0 °F 37.1 °F 19.4 °F 42% 30.21 in 10.0 mi North 5.8 mph - N/A   Clear
7:15 PM 42.8 °F - 19.4 °F 39% 30.22 in 10.0 mi Calm Calm - N/A   Clear
7:35 PM 41.0 °F - 19.4 °F 42% 30.23 in 10.0 mi Calm Calm - N/A   Clear
7:55 PM 42.8 °F 40.1 °F 19.4 °F 39% 30.24 in 10.0 mi NNW 4.6 mph - N/A   Clear
8:15 PM 37.4 °F 34.9 °F 19.4 °F 48% 30.24 in 10.0 mi WNW 3.5 mph - N/A   Clear
8:55 PM 33.8 °F - 19.4 °F 56% 30.24 in 10.0 mi Calm Calm - N/A   Clear
9:15 PM 33.8 °F - 19.4 °F 56% 30.25 in 10.0 mi Calm Calm - N/A   Clear
9:35 PM 32.0 °F - 19.4 °F 60% 30.25 in 10.0 mi Calm Calm - N/A   Clear
9:55 PM 35.6 °F - 21.2 °F 56% 30.24 in 10.0 mi Calm Calm - N/A   Clear
10:15 PM 37.4 °F - 21.2 °F 52% 30.25 in 10.0 mi Calm Calm - N/A   Clear
10:35 PM 32.0 °F - 19.4 °F 60% 30.25 in 10.0 mi Calm Calm - N/A   Clear
10:55 PM 33.8 °F - 19.4 °F 56% 30.25 in 10.0 mi Calm Calm - N/A   Clear
11:15 PM 30.2 °F 26.7 °F 21.2 °F 69% 30.25 in 10.0 mi SW 3.5 mph - N/A   Clear
11:35 PM 32.0 °F - 21.2 °F 64% 30.25 in 10.0 mi Calm Calm - N/A   Clear
11:55 PM 32.0 °F - 21.2 °F 64% 30.24 in 10.0 mi Calm Calm - N/A   Clear